Time,TemperatureF,DewpointF,PressureIn,WindDirection,WindDirectionDegrees,WindSpeedMPH,WindSpeedGustMPH,Humidity,HourlyPrecipIn,Conditions,Clouds,dailyrainin,SoftwareType,DateUTC
2013-11-30 00:01:00,57.3,51.5,30.30,NNE,23,3.0,12.0,81,0.00,,,0.00,WeatherCatV1.21B27,2013-11-30 05:01:00,
2013-11-30 00:02:00,57.3,51.5,30.30,North,5,4.0,8.0,81,0.00,,,0.00,WeatherCatV1.21B27,2013-11-30 05:02:00,
2013-11-30 00:03:00,57.3,51.5,30.30,North,5,2.0,8.0,81,0.00,,,0.00,WeatherCatV1.21B27,2013-11-30 05:03:00,
2013-11-30 00:08:00,57.3,51.5,30.30,North,9,2.0,7.0,81,0.00,,,0.00,WeatherCatV1.21B27,2013-11-30 05:08:00,
2013-11-30 00:13:00,57.2,51.8,30.30,North,0,1.0,8.0,82,0.00,,,0.00,WeatherCatV1.21B27,2013-11-30 05:13:00,
2013-11-30 00:18:00,57.1,51.7,30.30,NNE,13,0.0,6.0,82,0.00,,,0.00,WeatherCatV1.21B27,2013-11-30 05:18:00,
2013-11-30 00:23:00,56.9,51.5,30.30,ESE,120,2.0,6.0,82,0.00,,,0.00,WeatherCatV1.21B27,2013-11-30 05:23:00,
2013-11-30 00:28:00,56.8,51.4,30.29,North,355,2.0,6.0,82,0.00,,,0.00,WeatherCatV1.21B27,2013-11-30 05:28:00,
2013-11-30 00:33:00,56.7,51.3,30.29,North,11,6.0,9.0,82,0.00,,,0.00,WeatherCatV1.21B27,2013-11-30 05:33:00,
2013-11-30 00:38:00,56.6,51.5,30.29,North,5,0.0,2.0,83,0.00,,,0.00,WeatherCatV1.21B27,2013-11-30 05:38:00,
2013-11-30 00:43:00,56.6,51.5,30.29,North,0,5.0,9.0,83,0.00,,,0.00,WeatherCatV1.21B27,2013-11-30 05:43:00,
2013-11-30 00:48:00,56.4,51.3,30.29,North,11,4.0,6.0,83,0.00,,,0.00,WeatherCatV1.21B27,2013-11-30 05:48:00,
2013-11-30 00:53:00,56.4,51.3,30.29,NNW,342,0.0,2.0,83,0.00,,,0.00,WeatherCatV1.21B27,2013-11-30 05:53:00,
2013-11-30 00:58:00,56.2,51.1,30.29,North,5,1.0,4.0,83,0.00,,,0.00,WeatherCatV1.21B27,2013-11-30 05:58:00,
2013-11-30 01:03:00,56.1,51.3,30.29,NNW,344,5.0,7.0,84,0.00,,,0.00,WeatherCatV1.21B27,2013-11-30 06:03:00,
2013-11-30 01:08:00,56.0,51.2,30.28,NNW,348,1.0,5.0,84,0.00,,,0.00,WeatherCatV1.21B27,2013-11-30 06:08:00,
2013-11-30 01:13:00,55.9,51.1,30.29,NNE,16,4.0,5.0,84,0.00,,,0.00,WeatherCatV1.21B27,2013-11-30 06:13:00,
2013-11-30 01:18:00,55.9,51.1,30.28,NNW,333,2.0,4.0,84,0.00,,,0.00,WeatherCatV1.21B27,2013-11-30 06:18:00,
2013-11-30 01:23:00,55.8,51.4,30.28,North,9,0.0,2.0,85,0.00,,,0.00,WeatherCatV1.21B27,2013-11-30 06:23:00,
2013-11-30 01:28:00,55.7,51.3,30.28,NE,50,1.0,2.0,85,0.00,,,0.00,WeatherCatV1.21B27,2013-11-30 06:28:00,
2013-11-30 01:33:00,55.7,51.3,30.28,SE,138,0.0,4.0,85,0.00,,,0.00,WeatherCatV1.21B27,2013-11-30 06:33:00,
2013-11-30 01:38:00,55.6,51.2,30.28,North,11,0.0,1.0,85,0.00,,,0.00,WeatherCatV1.21B27,2013-11-30 06:38:00,
2013-11-30 01:43:00,55.5,51.1,30.28,NNE,32,1.0,1.0,85,0.00,,,0.00,WeatherCatV1.21B27,2013-11-30 06:43:00,
2013-11-30 01:48:00,55.4,51.0,30.28,NNE,27,1.0,4.0,85,0.00,,,0.00,WeatherCatV1.21B27,2013-11-30 06:48:00,
2013-11-30 01:53:00,55.4,51.3,30.27,NE,56,0.0,5.0,86,0.00,,,0.00,WeatherCatV1.21B27,2013-11-30 06:53:00,
2013-11-30 01:58:00,55.4,51.3,30.27,NNW,336,0.0,6.0,86,0.00,,,0.00,WeatherCatV1.21B27,2013-11-30 06:58:00,
2013-11-30 02:03:00,55.3,51.2,30.27,North,10,0.0,1.0,86,0.00,,,0.00,WeatherCatV1.21B27,2013-11-30 07:03:00,
2013-11-30 02:08:00,55.3,51.2,30.27,NNW,336,4.0,6.0,86,0.00,,,0.00,WeatherCatV1.21B27,2013-11-30 07:08:00,
2013-11-30 02:13:00,55.3,51.2,30.27,North,5,1.0,5.0,86,0.00,,,0.00,WeatherCatV1.21B27,2013-11-30 07:13:00,
2013-11-30 02:18:00,55.3,51.2,30.27,NNE,32,4.0,7.0,86,0.00,,,0.00,WeatherCatV1.21B27,2013-11-30 07:18:00,
2013-11-30 02:23:00,55.3,51.2,30.27,North,355,0.0,4.0,86,0.00,,,0.00,WeatherCatV1.21B27,2013-11-30 07:23:00,
2013-11-30 02:28:00,55.3,51.2,30.27,NNW,342,0.0,4.0,86,0.00,,,0.00,WeatherCatV1.21B27,2013-11-30 07:28:00,
2013-11-30 02:33:00,55.2,51.1,30.26,North,5,2.0,8.0,86,0.00,,,0.00,WeatherCatV1.21B27,2013-11-30 07:33:00,
2013-11-30 02:38:00,55.2,51.1,30.26,NNE,18,5.0,5.0,86,0.00,,,0.00,WeatherCatV1.21B27,2013-11-30 07:38:00,
2013-11-30 02:43:00,55.2,51.1,30.26,NNW,331,1.0,5.0,86,0.00,,,0.00,WeatherCatV1.21B27,2013-11-30 07:43:00,
2013-11-30 02:48:00,55.1,51.0,30.27,NNW,340,4.0,6.0,86,0.00,,,0.00,WeatherCatV1.21B27,2013-11-30 07:48:00,
2013-11-30 02:53:00,55.1,51.3,30.26,North,5,0.0,7.0,87,0.00,,,0.00,WeatherCatV1.21B27,2013-11-30 07:53:00,
2013-11-30 02:58:00,55.1,51.3,30.27,NNW,328,3.0,7.0,87,0.00,,,0.00,WeatherCatV1.21B27,2013-11-30 07:58:00,
2013-11-30 03:03:00,55.0,51.2,30.26,NNW,348,5.0,5.0,87,0.00,,,0.00,WeatherCatV1.21B27,2013-11-30 08:03:00,
2013-11-30 03:08:00,55.0,51.2,30.26,North,5,3.0,5.0,87,0.00,,,0.00,WeatherCatV1.21B27,2013-11-30 08:08:00,
2013-11-30 03:13:00,55.0,51.2,30.26,NNE,18,4.0,8.0,87,0.00,,,0.00,WeatherCatV1.21B27,2013-11-30 08:13:00,
2013-11-30 03:18:00,55.0,51.2,30.26,ENE,67,5.0,6.0,87,0.00,,,0.00,WeatherCatV1.21B27,2013-11-30 08:18:00,
2013-11-30 03:23:00,55.0,51.2,30.26,NNW,333,3.0,6.0,87,0.00,,,0.00,WeatherCatV1.21B27,2013-11-30 08:23:00,
2013-11-30 03:28:00,55.0,51.2,30.26,North,0,1.0,2.0,87,0.00,,,0.00,WeatherCatV1.21B27,2013-11-30 08:28:00,
2013-11-30 03:33:00,55.0,51.2,30.26,NNW,327,1.0,1.0,87,0.00,,,0.00,WeatherCatV1.21B27,2013-11-30 08:33:00,
2013-11-30 03:38:00,54.9,51.4,30.26,NNW,348,2.0,4.0,88,0.00,,,0.00,WeatherCatV1.21B27,2013-11-30 08:38:00,
2013-11-30 03:43:00,54.9,51.4,30.26,NNW,336,2.0,5.0,88,0.00,,,0.00,WeatherCatV1.21B27,2013-11-30 08:43:00,
2013-11-30 03:48:00,54.9,51.4,30.26,North,5,1.0,3.0,88,0.00,,,0.00,WeatherCatV1.21B27,2013-11-30 08:48:00,
2013-11-30 03:53:00,54.9,51.4,30.26,North,5,0.0,6.0,88,0.00,,,0.00,WeatherCatV1.21B27,2013-11-30 08:53:00,
2013-11-30 03:58:00,54.8,51.3,30.26,NNE,13,0.0,5.0,88,0.00,,,0.00,WeatherCatV1.21B27,2013-11-30 08:58:00,
2013-11-30 04:03:00,54.7,51.2,30.25,NNE,19,0.0,3.0,88,0.00,,,0.00,WeatherCatV1.21B27,2013-11-30 09:03:00,
2013-11-30 04:08:00,54.7,51.2,30.25,NNW,342,1.0,2.0,88,0.00,,,0.00,WeatherCatV1.21B27,2013-11-30 09:08:00,
2013-11-30 04:13:00,54.7,51.2,30.25,North,10,0.0,2.0,88,0.00,,,0.00,WeatherCatV1.21B27,2013-11-30 09:13:00,
2013-11-30 04:18:00,54.7,51.2,30.25,North,0,5.0,5.0,88,0.00,,,0.00,WeatherCatV1.21B27,2013-11-30 09:18:00,
2013-11-30 04:23:00,54.7,51.5,30.25,NE,55,2.0,4.0,89,0.00,,,0.00,WeatherCatV1.21B27,2013-11-30 09:23:00,
2013-11-30 04:28:00,54.7,51.5,30.25,NNW,331,2.0,5.0,89,0.00,,,0.00,WeatherCatV1.21B27,2013-11-30 09:28:00,
2013-11-30 04:33:00,54.7,51.5,30.25,NNE,27,1.0,1.0,89,0.00,,,0.00,WeatherCatV1.21B27,2013-11-30 09:33:00,
2013-11-30 04:38:00,54.7,51.5,30.25,NW,316,4.0,4.0,89,0.00,,,0.00,WeatherCatV1.21B27,2013-11-30 09:38:00,
2013-11-30 04:43:00,54.7,51.5,30.25,North,0,1.0,2.0,89,0.00,,,0.00,WeatherCatV1.21B27,2013-11-30 09:43:00,
2013-11-30 04:49:00,54.7,51.5,30.25,NNE,29,2.0,5.0,89,0.00,,,0.00,WeatherCatV1.21B27,2013-11-30 09:49:00,
2013-11-30 04:54:00,54.7,51.5,30.25,North,351,0.0,2.0,89,0.00,,,0.00,WeatherCatV1.21B27,2013-11-30 09:54:00,
2013-11-30 04:59:00,54.6,51.4,30.25,North,5,4.0,5.0,89,0.00,,,0.00,WeatherCatV1.21B27,2013-11-30 09:59:00,
2013-11-30 05:04:00,54.6,51.4,30.25,NW,325,3.0,7.0,89,0.00,,,0.00,WeatherCatV1.21B27,2013-11-30 10:04:00,
2013-11-30 05:09:00,54.6,51.4,30.25,NNW,348,1.0,5.0,89,0.00,,,0.00,WeatherCatV1.21B27,2013-11-30 10:09:00,
2013-11-30 05:14:00,54.6,51.4,30.25,NNE,13,2.0,5.0,89,0.00,,,0.00,WeatherCatV1.21B27,2013-11-30 10:14:00,
2013-11-30 05:19:00,54.6,51.4,30.25,North,349,2.0,2.0,89,0.00,,,0.00,WeatherCatV1.21B27,2013-11-30 10:19:00,
2013-11-30 05:24:00,54.6,51.7,30.25,NNW,331,4.0,4.0,90,0.00,,,0.00,WeatherCatV1.21B27,2013-11-30 10:24:00,
2013-11-30 05:29:00,54.6,51.7,30.25,NNW,348,1.0,5.0,90,0.00,,,0.00,WeatherCatV1.21B27,2013-11-30 10:29:00,
2013-11-30 05:34:00,54.5,51.6,30.25,North,0,1.0,6.0,90,0.00,,,0.00,WeatherCatV1.21B27,2013-11-30 10:34:00,
2013-11-30 05:39:00,54.5,51.6,30.25,North,5,2.0,5.0,90,0.00,,,0.00,WeatherCatV1.21B27,2013-11-30 10:39:00,
2013-11-30 05:44:00,54.5,51.6,30.25,NNW,329,1.0,4.0,90,0.00,,,0.00,WeatherCatV1.21B27,2013-11-30 10:44:00,
2013-11-30 05:49:00,54.5,51.6,30.25,North,5,1.0,5.0,90,0.00,,,0.00,WeatherCatV1.21B27,2013-11-30 10:49:00,
2013-11-30 05:54:00,54.5,51.6,30.26,NNW,340,1.0,4.0,90,0.00,,,0.00,WeatherCatV1.21B27,2013-11-30 10:54:00,
2013-11-30 05:59:00,54.5,51.6,30.26,North,5,1.0,5.0,90,0.00,,,0.00,WeatherCatV1.21B27,2013-11-30 10:59:00,
2013-11-30 06:04:00,54.5,51.9,30.26,NNE,33,0.0,4.0,91,0.00,,,0.00,WeatherCatV1.21B27,2013-11-30 11:04:00,
2013-11-30 06:09:00,54.5,51.9,30.26,NNE,19,0.0,4.0,91,0.00,,,0.00,WeatherCatV1.21B27,2013-11-30 11:09:00,
2013-11-30 06:14:00,54.5,51.9,30.26,NNE,28,5.0,5.0,91,0.00,,,0.00,WeatherCatV1.21B27,2013-11-30 11:14:00,
2013-11-30 06:19:00,54.6,52.0,30.26,NNE,27,0.0,2.0,91,0.00,,,0.00,WeatherCatV1.21B27,2013-11-30 11:19:00,
2013-11-30 06:24:00,54.6,52.0,30.26,NW,312,4.0,5.0,91,0.00,,,0.00,WeatherCatV1.21B27,2013-11-30 11:24:00,
2013-11-30 06:29:00,54.6,52.0,30.26,North,350,0.0,6.0,91,0.00,,,0.00,WeatherCatV1.21B27,2013-11-30 11:29:00,
2013-11-30 06:34:00,54.6,52.0,30.27,North,355,6.0,6.0,91,0.00,,,0.00,WeatherCatV1.21B27,2013-11-30 11:34:00,
2013-11-30 06:39:00,54.7,52.1,30.26,NNW,338,1.0,4.0,91,0.00,,,0.00,WeatherCatV1.21B27,2013-11-30 11:39:00,
2013-11-30 06:44:00,54.7,52.1,30.27,North,0,4.0,7.0,91,0.00,,,0.00,WeatherCatV1.21B27,2013-11-30 11:44:00,
2013-11-30 06:49:00,54.7,52.1,30.27,North,355,2.0,5.0,91,0.00,,,0.00,WeatherCatV1.21B27,2013-11-30 11:49:00,
2013-11-30 06:54:00,54.8,52.2,30.27,NE,40,1.0,5.0,91,0.00,,,0.00,WeatherCatV1.21B27,2013-11-30 11:54:00,
2013-11-30 06:59:00,54.8,52.2,30.27,East,80,3.0,4.0,91,0.00,,,0.00,WeatherCatV1.21B27,2013-11-30 11:59:00,
2013-11-30 07:04:00,54.8,52.2,30.27,North,350,0.0,5.0,91,0.00,,,0.00,WeatherCatV1.21B27,2013-11-30 12:04:00,
2013-11-30 07:09:00,54.8,52.2,30.28,NE,44,0.0,2.0,91,0.00,,,0.00,WeatherCatV1.21B27,2013-11-30 12:09:00,
2013-11-30 07:14:00,54.8,52.2,30.27,NNE,30,1.0,5.0,91,0.00,,,0.00,WeatherCatV1.21B27,2013-11-30 12:14:00,
2013-11-30 07:19:00,54.9,52.3,30.28,NNE,21,4.0,5.0,91,0.00,,,0.00,WeatherCatV1.21B27,2013-11-30 12:19:00,
2013-11-30 07:24:00,54.9,52.6,30.28,NNE,21,2.0,2.0,92,0.00,,,0.00,WeatherCatV1.21B27,2013-11-30 12:24:00,
2013-11-30 07:29:00,55.0,52.7,30.28,North,5,3.0,5.0,92,0.00,,,0.00,WeatherCatV1.21B27,2013-11-30 12:29:00,
2013-11-30 07:34:00,55.1,52.8,30.28,North,9,0.0,3.0,92,0.00,,,0.00,WeatherCatV1.21B27,2013-11-30 12:34:00,
2013-11-30 07:39:00,55.2,52.9,30.28,North,355,2.0,5.0,92,0.00,,,0.00,WeatherCatV1.21B27,2013-11-30 12:39:00,
2013-11-30 07:44:00,55.4,53.1,30.28,NE,38,0.0,6.0,92,0.00,,,0.00,WeatherCatV1.21B27,2013-11-30 12:44:00,
2013-11-30 07:49:00,55.5,53.2,30.28,NNE,13,2.0,4.0,92,0.00,,,0.00,WeatherCatV1.21B27,2013-11-30 12:49:00,
2013-11-30 07:54:00,55.8,53.5,30.28,North,5,3.0,7.0,92,0.00,,,0.00,WeatherCatV1.21B27,2013-11-30 12:54:00,
2013-11-30 07:59:00,55.9,53.6,30.28,North,355,2.0,7.0,92,0.00,,,0.00,WeatherCatV1.21B27,2013-11-30 12:59:00,
2013-11-30 08:04:00,56.0,53.7,30.29,NE,34,2.0,5.0,92,0.00,,,0.00,WeatherCatV1.21B27,2013-11-30 13:04:00,
2013-11-30 08:09:00,56.2,53.9,30.28,ENE,58,0.0,7.0,92,0.00,,,0.00,WeatherCatV1.21B27,2013-11-30 13:09:00,
2013-11-30 08:14:00,56.3,54.0,30.28,NNW,346,0.0,4.0,92,0.00,,,0.00,WeatherCatV1.21B27,2013-11-30 13:14:00,
2013-11-30 08:19:00,56.5,53.9,30.29,NW,325,4.0,4.0,91,0.00,,,0.00,WeatherCatV1.21B27,2013-11-30 13:19:00,
2013-11-30 08:24:00,56.7,54.1,30.28,NNE,15,5.0,6.0,91,0.00,,,0.00,WeatherCatV1.21B27,2013-11-30 13:24:00,
2013-11-30 08:29:00,57.0,54.4,30.28,NNW,338,1.0,7.0,91,0.00,,,0.00,WeatherCatV1.21B27,2013-11-30 13:29:00,
2013-11-30 08:34:00,57.3,54.7,30.28,NNE,21,2.0,7.0,91,0.00,,,0.00,WeatherCatV1.21B27,2013-11-30 13:34:00,
2013-11-30 08:39:00,57.7,55.1,30.28,NNW,331,2.0,5.0,91,0.00,,,0.00,WeatherCatV1.21B27,2013-11-30 13:39:00,
2013-11-30 08:44:00,58.1,55.2,30.28,NNW,336,2.0,5.0,90,0.00,,,0.00,WeatherCatV1.21B27,2013-11-30 13:44:00,
2013-11-30 08:49:00,58.5,55.6,30.28,East,90,2.0,2.0,90,0.00,,,0.00,WeatherCatV1.21B27,2013-11-30 13:49:00,
2013-11-30 08:54:00,59.0,55.8,30.28,North,0,4.0,6.0,89,0.00,,,0.00,WeatherCatV1.21B27,2013-11-30 13:54:00,
2013-11-30 08:59:00,59.3,55.7,30.28,NE,36,4.0,10.0,88,0.00,,,0.00,WeatherCatV1.21B27,2013-11-30 13:59:00,
2013-11-30 09:04:00,59.6,56.0,30.28,North,5,2.0,7.0,88,0.00,,,0.00,WeatherCatV1.21B27,2013-11-30 14:04:00,
2013-11-30 09:09:00,60.0,56.4,30.28,North,355,2.0,5.0,88,0.00,,,0.00,WeatherCatV1.21B27,2013-11-30 14:09:00,
2013-11-30 09:14:00,60.5,56.9,30.28,NW,306,1.0,7.0,88,0.00,,,0.00,WeatherCatV1.21B27,2013-11-30 14:14:00,
2013-11-30 09:19:00,60.9,57.0,30.28,NNW,339,3.0,5.0,87,0.00,,,0.00,WeatherCatV1.21B27,2013-11-30 14:19:00,
2013-11-30 09:24:00,61.1,57.2,30.28,NW,319,4.0,8.0,87,0.00,,,0.00,WeatherCatV1.21B27,2013-11-30 14:24:00,
2013-11-30 09:29:00,61.4,57.5,30.28,ENE,73,1.0,8.0,87,0.00,,,0.00,WeatherCatV1.21B27,2013-11-30 14:29:00,
2013-11-30 09:34:00,61.7,57.5,30.28,NW,311,0.0,7.0,86,0.00,,,0.00,WeatherCatV1.21B27,2013-11-30 14:34:00,
2013-11-30 09:39:00,62.2,58.3,30.28,NW,321,6.0,6.0,87,0.00,,,0.00,WeatherCatV1.21B27,2013-11-30 14:39:00,
2013-11-30 09:44:00,62.5,58.2,30.28,NE,53,4.0,8.0,86,0.00,,,0.00,WeatherCatV1.21B27,2013-11-30 14:44:00,
2013-11-30 09:49:00,62.7,58.1,30.28,NNW,328,2.0,6.0,85,0.00,,,0.00,WeatherCatV1.21B27,2013-11-30 14:49:00,
2013-11-30 09:54:00,63.1,58.5,30.27,NNW,335,6.0,8.0,85,0.00,,,0.00,WeatherCatV1.21B27,2013-11-30 14:54:00,
2013-11-30 09:59:00,63.6,59.0,30.27,NW,316,5.0,8.0,85,0.00,,,0.00,WeatherCatV1.21B27,2013-11-30 14:59:00,
2013-11-30 10:04:00,64.0,59.1,30.27,North,0,1.0,5.0,84,0.00,,,0.00,WeatherCatV1.21B27,2013-11-30 15:04:00,
2013-11-30 10:09:00,64.4,59.5,30.28,NE,47,7.0,9.0,84,0.00,,,0.00,WeatherCatV1.21B27,2013-11-30 15:09:00,
2013-11-30 10:14:00,64.7,59.4,30.27,NNE,28,6.0,6.0,83,0.00,,,0.00,WeatherCatV1.21B27,2013-11-30 15:14:00,
2013-11-30 10:19:00,65.2,59.9,30.27,NNW,335,5.0,8.0,83,0.00,,,0.00,WeatherCatV1.21B27,2013-11-30 15:19:00,
2013-11-30 10:24:00,65.6,60.3,30.27,ENE,62,0.0,4.0,83,0.00,,,0.00,WeatherCatV1.21B27,2013-11-30 15:24:00,
2013-11-30 10:29:00,66.0,60.3,30.27,East,81,2.0,8.0,82,0.00,,,0.00,WeatherCatV1.21B27,2013-11-30 15:29:00,
2013-11-30 10:34:00,66.4,60.7,30.27,ESE,108,2.0,8.0,82,0.00,,,0.00,WeatherCatV1.21B27,2013-11-30 15:34:00,
2013-11-30 10:39:00,66.9,60.9,30.27,NE,56,4.0,8.0,81,0.00,,,0.00,WeatherCatV1.21B27,2013-11-30 15:39:00,
2013-11-30 10:44:00,67.3,61.3,30.27,ENE,70,6.0,12.0,81,0.00,,,0.00,WeatherCatV1.21B27,2013-11-30 15:44:00,
2013-11-30 10:49:00,67.9,61.5,30.27,North,355,4.0,8.0,80,0.00,,,0.00,WeatherCatV1.21B27,2013-11-30 15:49:00,
2013-11-30 10:54:00,68.6,62.2,30.27,ESE,111,4.0,12.0,80,0.00,,,0.00,WeatherCatV1.21B27,2013-11-30 15:54:00,
2013-11-30 10:59:00,69.0,61.8,30.27,NNW,348,7.0,9.0,78,0.00,,,0.00,WeatherCatV1.21B27,2013-11-30 15:59:00,
2013-11-30 11:04:00,69.5,62.3,30.26,North,355,2.0,5.0,78,0.00,,,0.00,WeatherCatV1.21B27,2013-11-30 16:04:00,
2013-11-30 11:09:00,69.8,62.6,30.26,North,0,2.0,9.0,78,0.00,,,0.00,WeatherCatV1.21B27,2013-11-30 16:09:00,
2013-11-30 11:14:00,70.1,62.5,30.26,North,11,1.0,11.0,77,0.00,,,0.00,WeatherCatV1.21B27,2013-11-30 16:14:00,
2013-11-30 11:19:00,70.5,62.9,30.26,NE,42,5.0,8.0,77,0.00,,,0.00,WeatherCatV1.21B27,2013-11-30 16:19:00,
2013-11-30 11:24:00,70.9,62.9,30.25,ENE,68,6.0,8.0,76,0.00,,,0.00,WeatherCatV1.21B27,2013-11-30 16:24:00,
2013-11-30 11:29:00,71.4,63.4,30.25,NNW,330,2.0,9.0,76,0.00,,,0.00,WeatherCatV1.21B27,2013-11-30 16:29:00,
2013-11-30 11:34:00,71.6,63.6,30.25,NNW,329,5.0,8.0,76,0.00,,,0.00,WeatherCatV1.21B27,2013-11-30 16:34:00,
2013-11-30 11:39:00,71.8,63.4,30.24,NW,325,5.0,12.0,75,0.00,,,0.00,WeatherCatV1.21B27,2013-11-30 16:39:00,
2013-11-30 11:44:00,72.2,63.8,30.24,NNW,339,5.0,8.0,75,0.00,,,0.00,WeatherCatV1.21B27,2013-11-30 16:44:00,
2013-11-30 11:49:00,72.6,64.2,30.24,North,0,1.0,7.0,75,0.00,,,0.00,WeatherCatV1.21B27,2013-11-30 16:49:00,
2013-11-30 11:54:00,73.0,64.2,30.24,ESE,103,0.0,6.0,74,0.00,,,0.00,WeatherCatV1.21B27,2013-11-30 16:54:00,
2013-11-30 11:59:00,73.5,64.7,30.23,North,355,7.0,7.0,74,0.00,,,0.00,WeatherCatV1.21B27,2013-11-30 16:59:00,
2013-11-30 12:04:00,73.8,64.6,30.23,ENE,64,2.0,7.0,73,0.00,,,0.00,WeatherCatV1.21B27,2013-11-30 17:04:00,
2013-11-30 12:09:00,74.1,64.5,30.23,NE,48,2.0,7.0,72,0.00,,,0.00,WeatherCatV1.21B27,2013-11-30 17:09:00,
2013-11-30 12:14:00,74.1,64.1,30.23,East,84,4.0,12.0,71,0.00,,,0.00,WeatherCatV1.21B27,2013-11-30 17:14:00,
2013-11-30 12:19:00,73.9,64.3,30.22,West,267,3.0,9.0,72,0.00,,,0.00,WeatherCatV1.21B27,2013-11-30 17:19:00,
2013-11-30 12:24:00,73.7,64.1,30.22,ENE,69,2.0,9.0,72,0.00,,,0.00,WeatherCatV1.21B27,2013-11-30 17:24:00,
2013-11-30 12:29:00,73.9,64.3,30.22,East,101,6.0,8.0,72,0.00,,,0.00,WeatherCatV1.21B27,2013-11-30 17:29:00,
2013-11-30 12:34:00,74.4,65.2,30.22,NW,320,2.0,10.0,73,0.00,,,0.00,WeatherCatV1.21B27,2013-11-30 17:34:00,
2013-11-30 12:39:00,74.7,64.7,30.21,ENE,75,3.0,8.0,71,0.00,,,0.00,WeatherCatV1.21B27,2013-11-30 17:39:00,
2013-11-30 12:44:00,74.8,64.8,30.21,North,355,2.0,6.0,71,0.00,,,0.00,WeatherCatV1.21B27,2013-11-30 17:44:00,
2013-11-30 12:49:00,74.9,65.2,30.21,North,355,2.0,9.0,72,0.00,,,0.00,WeatherCatV1.21B27,2013-11-30 17:49:00,
2013-11-30 12:54:00,75.1,65.0,30.21,ESE,121,2.0,5.0,71,0.00,,,0.00,WeatherCatV1.21B27,2013-11-30 17:54:00,
2013-11-30 12:59:00,75.3,64.8,30.20,North,5,4.0,9.0,70,0.00,,,0.00,WeatherCatV1.21B27,2013-11-30 17:59:00,
2013-11-30 13:04:00,75.3,64.8,30.20,ESE,108,3.0,10.0,70,0.00,,,0.00,WeatherCatV1.21B27,2013-11-30 18:04:00,
2013-11-30 13:09:00,75.4,64.9,30.20,NW,318,5.0,5.0,70,0.00,,,0.00,WeatherCatV1.21B27,2013-11-30 18:09:00,
2013-11-30 13:14:00,75.4,64.9,30.20,North,5,6.0,9.0,70,0.00,,,0.00,WeatherCatV1.21B27,2013-11-30 18:14:00,
2013-11-30 13:19:00,75.2,64.7,30.20,East,94,2.0,9.0,70,0.00,,,0.00,WeatherCatV1.21B27,2013-11-30 18:19:00,
2013-11-30 13:24:00,75.1,64.6,30.20,East,87,2.0,7.0,70,0.00,,,0.00,WeatherCatV1.21B27,2013-11-30 18:24:00,
2013-11-30 13:29:00,74.8,64.3,30.19,ENE,72,1.0,6.0,70,0.00,,,0.00,WeatherCatV1.21B27,2013-11-30 18:29:00,
2013-11-30 13:34:00,74.6,64.6,30.19,East,87,4.0,7.0,71,0.00,,,0.00,WeatherCatV1.21B27,2013-11-30 18:34:00,
2013-11-30 13:39:00,74.6,64.6,30.19,East,92,6.0,6.0,71,0.00,,,0.00,WeatherCatV1.21B27,2013-11-30 18:39:00,
2013-11-30 13:44:00,74.8,64.8,30.19,ESE,107,5.0,9.0,71,0.00,,,0.00,WeatherCatV1.21B27,2013-11-30 18:44:00,
2013-11-30 13:49:00,75.0,64.5,30.18,East,86,3.0,6.0,70,0.00,,,0.00,WeatherCatV1.21B27,2013-11-30 18:49:00,
2013-11-30 13:54:00,75.3,65.2,30.18,NE,52,5.0,7.0,71,0.00,,,0.00,WeatherCatV1.21B27,2013-11-30 18:54:00,
2013-11-30 13:59:00,75.3,64.8,30.18,NNE,12,5.0,5.0,70,0.00,,,0.00,WeatherCatV1.21B27,2013-11-30 18:59:00,
2013-11-30 14:04:00,75.2,64.7,30.18,ENE,76,1.0,5.0,70,0.00,,,0.00,WeatherCatV1.21B27,2013-11-30 19:04:00,
2013-11-30 14:09:00,74.9,64.4,30.18,NNE,15,7.0,7.0,70,0.00,,,0.00,WeatherCatV1.21B27,2013-11-30 19:09:00,
2013-11-30 14:14:00,74.5,64.9,30.18,ENE,72,5.0,8.0,72,0.00,,,0.00,WeatherCatV1.21B27,2013-11-30 19:14:00,
2013-11-30 14:19:00,73.7,64.5,30.18,ENE,57,1.0,11.0,73,0.00,,,0.00,WeatherCatV1.21B27,2013-11-30 19:19:00,
2013-11-30 14:24:00,73.4,64.6,30.17,ENE,67,0.0,1.0,74,0.00,,,0.00,WeatherCatV1.21B27,2013-11-30 19:24:00,
2013-11-30 14:29:00,73.7,64.9,30.17,NE,56,0.0,2.0,74,0.00,,,0.00,WeatherCatV1.21B27,2013-11-30 19:29:00,
2013-11-30 14:34:00,74.1,64.9,30.18,East,93,0.0,7.0,73,0.00,,,0.00,WeatherCatV1.21B27,2013-11-30 19:34:00,
2013-11-30 14:39:00,74.6,64.6,30.17,NNE,20,0.0,8.0,71,0.00,,,0.00,WeatherCatV1.21B27,2013-11-30 19:39:00,
2013-11-30 14:44:00,74.7,64.2,30.17,NNE,23,3.0,9.0,70,0.00,,,0.00,WeatherCatV1.21B27,2013-11-30 19:44:00,
2013-11-30 14:49:00,74.8,64.8,30.17,ENE,73,2.0,6.0,71,0.00,,,0.00,WeatherCatV1.21B27,2013-11-30 19:49:00,
2013-11-30 14:54:00,74.9,64.4,30.17,North,355,1.0,10.0,70,0.00,,,0.00,WeatherCatV1.21B27,2013-11-30 19:54:00,
2013-11-30 14:59:00,74.9,64.8,30.17,North,5,1.0,6.0,71,0.00,,,0.00,WeatherCatV1.21B27,2013-11-30 19:59:00,
2013-11-30 15:04:00,75.1,65.4,30.17,NNW,340,4.0,7.0,72,0.00,,,0.00,WeatherCatV1.21B27,2013-11-30 20:04:00,
2013-11-30 15:09:00,75.2,65.1,30.16,NNE,19,0.0,4.0,71,0.00,,,0.00,WeatherCatV1.21B27,2013-11-30 20:09:00,
2013-11-30 15:14:00,75.4,64.5,30.16,South,177,1.0,7.0,69,0.00,,,0.00,WeatherCatV1.21B27,2013-11-30 20:14:00,
2013-11-30 15:19:00,75.3,64.4,30.16,ENE,69,0.0,10.0,69,0.00,,,0.00,WeatherCatV1.21B27,2013-11-30 20:19:00,
2013-11-30 15:24:00,75.1,64.6,30.16,ENE,78,0.0,4.0,70,0.00,,,0.00,WeatherCatV1.21B27,2013-11-30 20:24:00,
2013-11-30 15:29:00,75.1,64.6,30.16,NNE,24,0.0,5.0,70,0.00,,,0.00,WeatherCatV1.21B27,2013-11-30 20:29:00,
2013-11-30 15:34:00,75.2,64.7,30.16,North,5,2.0,8.0,70,0.00,,,0.00,WeatherCatV1.21B27,2013-11-30 20:34:00,
2013-11-30 15:39:00,75.1,64.2,30.16,North,5,3.0,6.0,69,0.00,,,0.00,WeatherCatV1.21B27,2013-11-30 20:39:00,
2013-11-30 15:44:00,75.0,64.5,30.16,NNE,14,0.0,4.0,70,0.00,,,0.00,WeatherCatV1.21B27,2013-11-30 20:44:00,
2013-11-30 15:49:00,74.9,64.4,30.16,East,96,0.0,2.0,70,0.00,,,0.00,WeatherCatV1.21B27,2013-11-30 20:49:00,
2013-11-30 15:54:00,74.8,64.8,30.17,North,355,3.0,10.0,71,0.00,,,0.00,WeatherCatV1.21B27,2013-11-30 20:54:00,
2013-11-30 15:59:00,74.0,65.2,30.17,East,83,1.0,4.0,74,0.00,,,0.00,WeatherCatV1.21B27,2013-11-30 20:59:00,
2013-11-30 16:04:00,73.2,64.8,30.16,ESE,115,4.0,6.0,75,0.00,,,0.00,WeatherCatV1.21B27,2013-11-30 21:04:00,
2013-11-30 16:09:00,72.7,64.7,30.16,East,88,0.0,5.0,76,0.00,,,0.00,WeatherCatV1.21B27,2013-11-30 21:09:00,
2013-11-30 16:14:00,72.4,64.4,30.16,ESE,110,0.0,2.0,76,0.00,,,0.00,WeatherCatV1.21B27,2013-11-30 21:14:00,
2013-11-30 16:19:00,72.4,64.4,30.16,ENE,73,8.0,8.0,76,0.00,,,0.00,WeatherCatV1.21B27,2013-11-30 21:19:00,
2013-11-30 16:24:00,72.5,64.1,30.16,East,100,2.0,7.0,75,0.00,,,0.00,WeatherCatV1.21B27,2013-11-30 21:24:00,
2013-11-30 16:29:00,72.7,63.9,30.16,East,91,1.0,4.0,74,0.00,,,0.00,WeatherCatV1.21B27,2013-11-30 21:29:00,
2013-11-30 16:34:00,72.8,63.6,30.16,NE,38,1.0,9.0,73,0.00,,,0.00,WeatherCatV1.21B27,2013-11-30 21:34:00,
2013-11-30 16:39:00,72.9,64.1,30.16,ESE,113,1.0,4.0,74,0.00,,,0.00,WeatherCatV1.21B27,2013-11-30 21:39:00,
2013-11-30 16:44:00,73.0,63.8,30.16,East,99,6.0,6.0,73,0.00,,,0.00,WeatherCatV1.21B27,2013-11-30 21:44:00,
2013-11-30 16:49:00,73.1,63.9,30.16,ENE,78,7.0,7.0,73,0.00,,,0.00,WeatherCatV1.21B27,2013-11-30 21:49:00,
2013-11-30 16:54:00,73.1,63.9,30.16,NE,52,1.0,5.0,73,0.00,,,0.00,WeatherCatV1.21B27,2013-11-30 21:54:00,
2013-11-30 16:59:00,73.1,63.9,30.16,NE,48,2.0,4.0,73,0.00,,,0.00,WeatherCatV1.21B27,2013-11-30 21:59:00,
2013-11-30 17:04:00,73.1,63.9,30.16,ENE,69,4.0,7.0,73,0.00,,,0.00,WeatherCatV1.21B27,2013-11-30 22:04:00,
2013-11-30 17:09:00,73.1,63.9,30.16,East,82,4.0,4.0,73,0.00,,,0.00,WeatherCatV1.21B27,2013-11-30 22:09:00,
2013-11-30 17:14:00,73.1,63.9,30.16,NNE,24,0.0,2.0,73,0.00,,,0.00,WeatherCatV1.21B27,2013-11-30 22:14:00,
2013-11-30 17:19:00,73.0,64.2,30.16,NNE,24,0.0,2.0,74,0.00,,,0.00,WeatherCatV1.21B27,2013-11-30 22:19:00,
2013-11-30 17:24:00,72.9,64.1,30.16,NNE,22,0.0,2.0,74,0.00,,,0.00,WeatherCatV1.21B27,2013-11-30 22:24:00,
2013-11-30 17:29:00,72.7,64.3,30.17,NE,41,5.0,11.0,75,0.00,,,0.00,WeatherCatV1.21B27,2013-11-30 22:29:00,
2013-11-30 17:34:00,72.6,64.2,30.17,East,81,0.0,4.0,75,0.00,,,0.00,WeatherCatV1.21B27,2013-11-30 22:34:00,
2013-11-30 17:39:00,72.5,64.5,30.17,East,80,0.0,0.0,76,0.00,,,0.00,WeatherCatV1.21B27,2013-11-30 22:39:00,
2013-11-30 17:44:00,72.2,64.2,30.17,East,80,0.0,1.0,76,0.00,,,0.00,WeatherCatV1.21B27,2013-11-30 22:44:00,
2013-11-30 17:49:00,72.1,64.1,30.17,ENE,76,0.0,0.0,76,0.00,,,0.00,WeatherCatV1.21B27,2013-11-30 22:49:00,
2013-11-30 17:54:00,71.9,63.9,30.17,North,0,2.0,2.0,76,0.00,,,0.00,WeatherCatV1.21B27,2013-11-30 22:54:00,
2013-11-30 17:59:00,71.8,63.8,30.17,NE,38,0.0,0.0,76,0.00,,,0.00,WeatherCatV1.21B27,2013-11-30 22:59:00,
2013-11-30 18:04:00,71.7,63.7,30.17,NE,38,0.0,1.0,76,0.00,,,0.00,WeatherCatV1.21B27,2013-11-30 23:04:00,
2013-11-30 18:09:00,71.6,63.6,30.17,NE,38,1.0,1.0,76,0.00,,,0.00,WeatherCatV1.21B27,2013-11-30 23:09:00,
2013-11-30 18:14:00,71.5,63.5,30.18,NNE,30,0.0,1.0,76,0.00,,,0.00,WeatherCatV1.21B27,2013-11-30 23:14:00,
2013-11-30 18:19:00,71.3,63.3,30.17,NNE,20,0.0,2.0,76,0.00,,,0.00,WeatherCatV1.21B27,2013-11-30 23:19:00,
2013-11-30 18:24:00,71.2,63.2,30.18,NNE,20,0.0,1.0,76,0.00,,,0.00,WeatherCatV1.21B27,2013-11-30 23:24:00,
2013-11-30 18:29:00,71.1,63.5,30.18,North,355,1.0,4.0,77,0.00,,,0.00,WeatherCatV1.21B27,2013-11-30 23:29:00,
2013-11-30 18:34:00,70.9,63.7,30.18,NNW,331,0.0,2.0,78,0.00,,,0.00,WeatherCatV1.21B27,2013-11-30 23:34:00,
2013-11-30 18:39:00,70.7,63.5,30.18,North,5,2.0,2.0,78,0.00,,,0.00,WeatherCatV1.21B27,2013-11-30 23:39:00,
2013-11-30 18:44:00,70.5,63.3,30.17,NNW,340,0.0,5.0,78,0.00,,,0.00,WeatherCatV1.21B27,2013-11-30 23:44:00,
2013-11-30 18:49:00,70.2,63.0,30.17,North,0,0.0,4.0,78,0.00,,,0.00,WeatherCatV1.21B27,2013-11-30 23:49:00,
2013-11-30 18:54:00,70.0,62.8,30.17,North,0,0.0,0.0,78,0.00,,,0.00,WeatherCatV1.21B27,2013-11-30 23:54:00,
2013-11-30 18:59:00,69.8,62.6,30.17,NNW,346,0.0,4.0,78,0.00,,,0.00,WeatherCatV1.21B27,2013-11-30 23:59:00,
2013-11-30 19:04:00,69.7,62.9,30.17,North,355,0.0,0.0,79,0.00,,,0.00,WeatherCatV1.21B27,2013-12-01 00:04:00,
2013-11-30 19:09:00,69.5,62.7,30.17,North,355,0.0,2.0,79,0.00,,,0.00,WeatherCatV1.21B27,2013-12-01 00:09:00,
2013-11-30 19:14:00,69.4,62.6,30.17,ENE,65,0.0,0.0,79,0.00,,,0.00,WeatherCatV1.21B27,2013-12-01 00:14:00,
2013-11-30 19:19:00,69.2,62.4,30.17,East,82,2.0,2.0,79,0.00,,,0.00,WeatherCatV1.21B27,2013-12-01 00:19:00,
2013-11-30 19:24:00,69.0,62.6,30.17,East,82,0.0,0.0,80,0.00,,,0.00,WeatherCatV1.21B27,2013-12-01 00:24:00,
2013-11-30 19:29:00,68.8,62.4,30.17,NE,45,0.0,1.0,80,0.00,,,0.00,WeatherCatV1.21B27,2013-12-01 00:29:00,
2013-11-30 19:34:00,68.6,62.2,30.17,NE,45,0.0,1.0,80,0.00,,,0.00,WeatherCatV1.21B27,2013-12-01 00:34:00,
2013-11-30 19:39:00,68.5,62.1,30.17,NNE,21,1.0,2.0,80,0.00,,,0.00,WeatherCatV1.21B27,2013-12-01 00:39:00,
2013-11-30 19:44:00,68.3,61.9,30.17,NNE,21,0.0,1.0,80,0.00,,,0.00,WeatherCatV1.21B27,2013-12-01 00:44:00,
2013-11-30 19:49:00,68.1,62.0,30.18,NNW,331,0.0,4.0,81,0.00,,,0.00,WeatherCatV1.21B27,2013-12-01 00:49:00,
2013-11-30 19:54:00,68.0,61.9,30.18,North,5,0.0,0.0,81,0.00,,,0.00,WeatherCatV1.21B27,2013-12-01 00:54:00,
2013-11-30 19:59:00,67.9,61.8,30.18,North,5,0.0,0.0,81,0.00,,,0.00,WeatherCatV1.21B27,2013-12-01 00:59:00,
2013-11-30 20:04:00,67.8,61.8,30.18,North,5,0.0,1.0,81,0.00,,,0.00,WeatherCatV1.21B27,2013-12-01 01:04:00,
2013-11-30 20:09:00,67.6,61.5,30.19,North,5,0.0,1.0,81,0.00,,,0.00,WeatherCatV1.21B27,2013-12-01 01:09:00,
2013-11-30 20:14:00,67.5,61.8,30.18,North,0,0.0,5.0,82,0.00,,,0.00,WeatherCatV1.21B27,2013-12-01 01:14:00,
2013-11-30 20:19:00,67.5,61.8,30.19,North,0,0.0,1.0,82,0.00,,,0.00,WeatherCatV1.21B27,2013-12-01 01:19:00,
2013-11-30 20:24:00,67.4,61.7,30.18,NNE,12,0.0,4.0,82,0.00,,,0.00,WeatherCatV1.21B27,2013-12-01 01:24:00,
2013-11-30 20:29:00,67.4,61.7,30.19,NNE,12,0.0,1.0,82,0.00,,,0.00,WeatherCatV1.21B27,2013-12-01 01:29:00,
2013-11-30 20:34:00,67.3,61.6,30.19,NNE,22,2.0,4.0,82,0.00,,,0.00,WeatherCatV1.21B27,2013-12-01 01:34:00,
2013-11-30 20:39:00,67.3,61.6,30.19,NNE,22,0.0,2.0,82,0.00,,,0.00,WeatherCatV1.21B27,2013-12-01 01:39:00,
2013-11-30 20:43:00,67.2,61.5,30.19,NE,35,0.0,4.0,82,0.00,,,0.00,WeatherCatV1.21B27,2013-12-01 01:43:00,
2013-11-30 20:48:00,67.1,61.4,30.19,NE,34,0.0,1.0,82,0.00,,,0.00,WeatherCatV1.21B27,2013-12-01 01:48:00,
2013-11-30 20:53:00,67.0,61.3,30.19,NE,34,0.0,1.0,82,0.00,,,0.00,WeatherCatV1.21B27,2013-12-01 01:53:00,
2013-11-30 20:58:00,66.8,61.1,30.19,NE,34,0.0,2.0,82,0.00,,,0.00,WeatherCatV1.21B27,2013-12-01 01:58:00,
2013-11-30 21:03:00,66.7,61.4,30.20,NE,34,0.0,0.0,83,0.00,,,0.00,WeatherCatV1.21B27,2013-12-01 02:03:00,
2013-11-30 21:08:00,66.6,61.3,30.19,NE,34,0.0,0.0,83,0.00,,,0.00,WeatherCatV1.21B27,2013-12-01 02:08:00,
2013-11-30 21:13:00,66.4,61.1,30.19,NE,34,0.0,0.0,83,0.00,,,0.00,WeatherCatV1.21B27,2013-12-01 02:13:00,
2013-11-30 21:18:00,66.1,60.8,30.19,NE,34,1.0,1.0,83,0.00,,,0.00,WeatherCatV1.21B27,2013-12-01 02:18:00,
2013-11-30 21:23:00,65.9,60.9,30.19,ENE,63,0.0,5.0,84,0.00,,,0.00,WeatherCatV1.21B27,2013-12-01 02:23:00,
2013-11-30 21:28:00,65.9,60.9,30.19,NE,49,0.0,2.0,84,0.00,,,0.00,WeatherCatV1.21B27,2013-12-01 02:28:00,
2013-11-30 21:33:00,65.8,60.8,30.19,North,5,1.0,1.0,84,0.00,,,0.00,WeatherCatV1.21B27,2013-12-01 02:33:00,
2013-11-30 21:38:00,65.7,60.7,30.19,North,11,0.0,0.0,84,0.00,,,0.00,WeatherCatV1.21B27,2013-12-01 02:38:00,
2013-11-30 21:43:00,65.6,60.6,30.19,North,11,0.0,0.0,84,0.00,,,0.00,WeatherCatV1.21B27,2013-12-01 02:43:00,
2013-11-30 21:48:00,65.5,60.5,30.19,NW,323,0.0,3.0,84,0.00,,,0.00,WeatherCatV1.21B27,2013-12-01 02:48:00,
2013-11-30 21:53:00,65.3,60.3,30.19,North,355,0.0,4.0,84,0.00,,,0.00,WeatherCatV1.21B27,2013-12-01 02:53:00,
2013-11-30 21:58:00,65.2,60.2,30.19,North,355,1.0,1.0,84,0.00,,,0.00,WeatherCatV1.21B27,2013-12-01 02:58:00,
2013-11-30 22:03:00,65.1,60.1,30.19,North,5,0.0,4.0,84,0.00,,,0.00,WeatherCatV1.21B27,2013-12-01 03:03:00,
2013-11-30 22:08:00,65.0,60.4,30.19,North,355,0.0,1.0,85,0.00,,,0.00,WeatherCatV1.21B27,2013-12-01 03:08:00,
2013-11-30 22:13:00,64.9,60.3,30.19,North,0,0.0,5.0,85,0.00,,,0.00,WeatherCatV1.21B27,2013-12-01 03:13:00,
2013-11-30 22:18:00,64.9,60.3,30.19,East,99,0.0,8.0,85,0.00,,,0.00,WeatherCatV1.21B27,2013-12-01 03:18:00,
2013-11-30 22:23:00,64.8,60.5,30.19,South,186,1.0,6.0,86,0.00,,,0.00,WeatherCatV1.21B27,2013-12-01 03:23:00,
2013-11-30 22:28:00,64.8,60.5,30.18,North,355,4.0,4.0,86,0.00,,,0.00,WeatherCatV1.21B27,2013-12-01 03:28:00,
2013-11-30 22:33:00,64.7,60.4,30.19,North,0,4.0,8.0,86,0.00,,,0.00,WeatherCatV1.21B27,2013-12-01 03:33:00,
2013-11-30 22:38:00,64.7,60.4,30.19,NW,317,4.0,6.0,86,0.00,,,0.00,WeatherCatV1.21B27,2013-12-01 03:38:00,
2013-11-30 22:43:00,64.5,60.2,30.18,NNW,330,1.0,3.0,86,0.00,,,0.00,WeatherCatV1.21B27,2013-12-01 03:43:00,
2013-11-30 22:49:00,64.4,60.1,30.18,NNE,15,3.0,3.0,86,0.00,,,0.00,WeatherCatV1.21B27,2013-12-01 03:49:00,
2013-11-30 22:54:00,64.2,59.9,30.18,North,11,0.0,4.0,86,0.00,,,0.00,WeatherCatV1.21B27,2013-12-01 03:54:00,
2013-11-30 22:59:00,64.1,59.8,30.18,NW,316,1.0,3.0,86,0.00,,,0.00,WeatherCatV1.21B27,2013-12-01 03:59:00,
2013-11-30 23:04:00,64.0,59.7,30.18,North,9,0.0,1.0,86,0.00,,,0.00,WeatherCatV1.21B27,2013-12-01 04:04:00,
2013-11-30 23:09:00,63.8,59.8,30.18,NNE,31,0.0,3.0,87,0.00,,,0.00,WeatherCatV1.21B27,2013-12-01 04:09:00,
2013-11-30 23:14:00,63.6,59.7,30.18,North,5,1.0,5.0,87,0.00,,,0.00,WeatherCatV1.21B27,2013-12-01 04:14:00,
2013-11-30 23:19:00,63.5,59.6,30.18,NNE,19,4.0,4.0,87,0.00,,,0.00,WeatherCatV1.21B27,2013-12-01 04:19:00,
2013-11-30 23:24:00,63.3,59.4,30.18,NNW,338,1.0,3.0,87,0.00,,,0.00,WeatherCatV1.21B27,2013-12-01 04:24:00,
2013-11-30 23:29:00,63.1,59.2,30.17,NNW,339,0.0,4.0,87,0.00,,,0.00,WeatherCatV1.21B27,2013-12-01 04:29:00,
2013-11-30 23:34:00,63.0,59.4,30.17,NNE,19,0.0,2.0,88,0.00,,,0.00,WeatherCatV1.21B27,2013-12-01 04:34:00,
2013-11-30 23:39:00,62.9,59.3,30.17,NNW,343,3.0,4.0,88,0.00,,,0.00,WeatherCatV1.21B27,2013-12-01 04:39:00,
2013-11-30 23:44:00,62.7,59.1,30.17,NNW,344,0.0,1.0,88,0.00,,,0.00,WeatherCatV1.21B27,2013-12-01 04:44:00,
2013-11-30 23:49:00,62.6,59.0,30.18,NNW,332,1.0,5.0,88,0.00,,,0.00,WeatherCatV1.21B27,2013-12-01 04:49:00,
2013-11-30 23:54:00,62.5,59.2,30.18,NNW,338,0.0,2.0,89,0.00,,,0.00,WeatherCatV1.21B27,2013-12-01 04:54:00,
2013-11-30 23:59:00,62.4,59.1,30.18,NW,322,4.0,5.0,89,0.00,,,0.00,WeatherCatV1.21B27,2013-12-01 04:59:00,